| time (UTC) | temp C | wind direction | speed KPH | gust KPH | rain 1hr cm | rain 24hr cm | rain mn cm | humidity % | barometer mb |
| 20260502194419 | 23 | 232 | 4.8 | 8.0 | 0.00 | 0.00 | 0.00 | 37 | 1018.2 |
| 20260502193915 | 23 | 329 | 1.6 | 1.6 | 0.00 | 0.00 | 0.00 | 40 | 1018.4 |
| 20260502193412 | 23 | 13 | 1.6 | 1.6 | 0.00 | 0.00 | 0.00 | 39 | 1018.6 |
| 20260502192908 | 23 | 273 | 6.4 | 9.7 | 0.00 | 0.00 | 0.00 | 42 | 1018.4 |
| 20260502192405 | 24 | 274 | 3.2 | 3.2 | 0.00 | 0.00 | 0.00 | 40 | 1018.5 |
| 20260502191902 | 23 | 345 | 1.6 | 1.6 | 0.00 | 0.00 | 0.00 | 42 | 1018.9 |
| 20260502191400 | 23 | 4 | 1.6 | 3.2 | 0.00 | 0.00 | 0.00 | 37 | 1019.0 |
| 20260502190857 | 24 | 340 | 4.8 | 8.0 | 0.00 | 0.00 | 0.00 | 39 | 1018.9 |
| 20260502190354 | 24 | 359 | 1.6 | 3.2 | 0.00 | 0.00 | 0.00 | 38 | 1019.0 |
| 20260502185850 | 23 | 26 | 1.6 | 3.2 | 0.00 | 0.00 | 0.00 | 40 | 1019.1 |
| 20260502185345 | 24 | 31 | 8.0 | 11.3 | 0.00 | 0.00 | 0.00 | 37 | 1019.2 |
| 20260502184843 | 23 | 319 | 1.6 | 1.6 | 0.00 | 0.00 | 0.00 | 40 | 1019.1 |
| 20260502184338 | 23 | 293 | 1.6 | 3.2 | 0.00 | 0.00 | 0.00 | 41 | 1019.2 |
| 20260502183835 | 24 | 10 | 3.2 | 3.2 | 0.00 | 0.00 | 0.00 | 39 | 1019.4 |
| 20260502183331 | 23 | 11 | 1.6 | 1.6 | 0.00 | 0.00 | 0.00 | 38 | 1019.4 |
| 20260502182826 | 23 | 339 | 3.2 | 3.2 | 0.00 | 0.00 | 0.00 | 38 | 1019.3 |
| 20260502182322 | 23 | 65 | 3.2 | 3.2 | 0.00 | 0.00 | 0.00 | 40 | 1019.4 |
| 20260502181819 | 23 | 321 | 1.6 | 1.6 | 0.00 | 0.00 | 0.00 | 37 | 1019.4 |
| 20260502181318 | 22 | 76 | 1.6 | 3.2 | 0.00 | 0.00 | 0.00 | 38 | 1019.2 |
| 20260502180815 | 22 | 7 | 11.3 | 12.9 | 0.00 | 0.00 | 0.00 | 40 | 1019.4 |
| 20260502180312 | 22 | 16 | 6.4 | 9.7 | 0.00 | 0.00 | 0.00 | 41 | 1019.6 |
| 20260502170231 | 22 | 321 | 0.0 | 1.6 | 0.00 | 0.00 | 0.00 | 47 | 1020.0 |
| 20260502164219 | 21 | 2 | 1.6 | 1.6 | 0.00 | 0.00 | 0.00 | 45 | 1019.9 |
| 20260502163714 | 21 | 46 | 3.2 | 3.2 | 0.00 | 0.00 | 0.00 | 47 | 1020.0 |
| 20260502163211 | 21 | 325 | 1.6 | 3.2 | 0.00 | 0.00 | 0.00 | 48 | 1019.9 |
| 20260502162708 | 21 | 312 | 1.6 | 3.2 | 0.00 | 0.00 | 0.00 | 49 | 1019.9 |
| 20260502162204 | 21 | 22 | 4.8 | 8.0 | 0.00 | 0.00 | 0.00 | 46 | 1020.1 |
| 20260502161702 | 20 | 19 | 3.2 | 3.2 | 0.00 | 0.00 | 0.00 | 49 | 1020.1 |
| 20260502161158 | 20 | 18 | 1.6 | 1.6 | 0.00 | 0.00 | 0.00 | 49 | 1020.1 |
| 20260502160657 | 20 | 24 | 6.4 | 8.0 | 0.00 | 0.00 | 0.00 | 47 | 1020.1 |
| 20260502160156 | 20 | 22 | 1.6 | 1.6 | 0.00 | 0.00 | 0.00 | 51 | 1020.2 |
| 20260502152109 | 18 | 16 | 6.4 | 8.0 | 0.00 | 0.00 | 0.00 | 58 | 1020.0 |
| 20260502151606 | 18 | 332 | 1.6 | 1.6 | 0.00 | 0.00 | 0.00 | 63 | 1020.0 |
| 20260502151104 | 17 | 13 | 1.6 | 1.6 | 0.00 | 0.00 | 0.00 | 66 | 1019.8 |
| 20260502150601 | 17 | 50 | 1.6 | 3.2 | 0.00 | 0.00 | 0.00 | 69 | 1019.7 |
| 20260502130446 | 12 | 352 | 0.0 | 1.6 | 0.00 | 0.00 | 0.00 | 99 | 1018.6 |
| 20260502123428 | 12 | 320 | 0.0 | 1.6 | 0.00 | 0.00 | 0.00 | 99 | 1018.3 |
| 20260502122926 | 12 | 344 | 0.0 | 0.0 | 0.00 | 0.00 | 0.00 | 99 | 1018.4 |
| 20260502122422 | 12 | 338 | 0.0 | 0.0 | 0.00 | 0.00 | 0.00 | 99 | 1018.1 |
| 20260502121920 | 11 | 332 | 0.0 | 0.0 | 0.00 | 0.00 | 0.00 | 99 | 1018.0 |
| 20260502121417 | 11 | 335 | 0.0 | 0.0 | 0.00 | 0.00 | 0.00 | 99 | 1017.8 |
| 20260502120915 | 11 | 339 | 0.0 | 0.0 | 0.00 | 0.00 | 0.00 | 99 | 1018.0 |
| 20260502120410 | 11 | 332 | 0.0 | 0.0 | 0.00 | 0.00 | 0.00 | 99 | 1017.8 |
| 20260502115908 | 11 | 331 | 0.0 | 0.0 | 0.00 | 0.00 | 0.00 | 99 | 1017.6 |
| 20260502115405 | 11 | 333 | 0.0 | 0.0 | 0.00 | 0.00 | 0.00 | 99 | 1017.6 |
| 20260502114901 | 11 | 329 | 0.0 | 0.0 | 0.00 | 0.00 | 0.00 | 99 | 1017.6 |
| 20260502114358 | 11 | 334 | 0.0 | 0.0 | 0.00 | 0.00 | 0.00 | 99 | 1017.5 |
| 20260502113855 | 11 | 333 | 0.0 | 0.0 | 0.00 | 0.00 | 0.00 | 99 | 1017.5 |
| 20260502113352 | 11 | 321 | 0.0 | 0.0 | 0.00 | 0.00 | 0.00 | 99 | 1017.4 |
| 20260502112851 | 11 | 327 | 0.0 | 0.0 | 0.00 | 0.00 | 0.00 | 99 | 1017.4 |
| 20260502112348 | 11 | 328 | 0.0 | 0.0 | 0.00 | 0.00 | 0.00 | 99 | 1017.1 |
| 20260502111845 | 11 | 327 | 0.0 | 0.0 | 0.00 | 0.00 | 0.00 | 99 | 1017.0 |
| 20260502111342 | 11 | 320 | 0.0 | 0.0 | 0.00 | 0.00 | 0.00 | 99 | 1017.0 |
| 20260502110840 | 11 | 313 | 0.0 | 0.0 | 0.00 | 0.00 | 0.00 | 99 | 1017.0 |
| 20260502110338 | 11 | 305 | 0.0 | 0.0 | 0.00 | 0.00 | 0.00 | 99 | 1016.7 |
| 20260502105835 | 11 | 317 | 0.0 | 0.0 | 0.00 | 0.00 | 0.00 | 99 | 1016.6 |
| 20260502105332 | 11 | 321 | 0.0 | 0.0 | 0.00 | 0.00 | 0.00 | 99 | 1016.4 |
| 20260502104830 | 11 | 321 | 0.0 | 0.0 | 0.00 | 0.00 | 0.00 | 99 | 1016.6 |
| 20260502104327 | 11 | 344 | 0.0 | 0.0 | 0.00 | 0.00 | 0.00 | 99 | 1016.5 |
| 20260502103824 | 12 | 345 | 0.0 | 0.0 | 0.00 | 0.00 | 0.00 | 99 | 1016.4 |
| 20260502103321 | 12 | 348 | 0.0 | 0.0 | 0.00 | 0.00 | 0.00 | 99 | 1016.2 |
| 20260502102818 | 12 | 345 | 0.0 | 0.0 | 0.00 | 0.00 | 0.00 | 99 | 1016.3 |
| 20260502102315 | 12 | 340 | 0.0 | 0.0 | 0.00 | 0.00 | 0.00 | 99 | 1016.2 |
| 20260502101813 | 12 | 324 | 0.0 | 0.0 | 0.00 | 0.00 | 0.00 | 99 | 1016.2 |
| 20260502101311 | 12 | 323 | 0.0 | 0.0 | 0.00 | 0.00 | 0.00 | 99 | 1016.2 |
| 20260502100809 | 12 | 344 | 0.0 | 0.0 | 0.00 | 0.00 | 0.00 | 99 | 1016.1 |
| 20260502100308 | 12 | 338 | 0.0 | 0.0 | 0.00 | 0.00 | 0.00 | 99 | 1016.1 |
| 20260502091241 | 12 | 323 | 0.0 | 0.0 | 0.00 | 0.00 | 0.00 | 99 | 1016.1 |
| 20260502090738 | 12 | 326 | 0.0 | 0.0 | 0.00 | 0.00 | 0.00 | 99 | 1016.2 |
| 20260502090235 | 12 | 320 | 0.0 | 0.0 | 0.00 | 0.00 | 0.00 | 99 | 1016.0 |
| 20260502071136 | 12 | 328 | 0.0 | 0.0 | 0.00 | 0.00 | 0.00 | 99 | 1015.8 |
| 20260502070634 | 12 | 344 | 0.0 | 0.0 | 0.00 | 0.00 | 0.00 | 99 | 1015.7 |
| 20260502070131 | 13 | 351 | 0.0 | 0.0 | 0.00 | 0.00 | 0.00 | 99 | 1015.8 |
| 20260502065629 | 13 | 330 | 0.0 | 0.0 | 0.00 | 0.00 | 0.00 | 99 | 1016.2 |
| 20260502065126 | 13 | 327 | 0.0 | 0.0 | 0.00 | 0.00 | 0.00 | 99 | 1016.0 |
| 20260502064626 | 13 | 328 | 0.0 | 0.0 | 0.00 | 0.00 | 0.00 | 99 | 1016.1 |
| 20260502064122 | 13 | 338 | 0.0 | 0.0 | 0.00 | 0.00 | 0.00 | 99 | 1016.1 |
| 20260502063620 | 13 | 336 | 0.0 | 0.0 | 0.00 | 0.00 | 0.00 | 99 | 1016.1 |
| 20260502063117 | 13 | 14 | 0.0 | 0.0 | 0.00 | 0.00 | 0.00 | 99 | 1016.2 |
| 20260502062614 | 13 | 330 | 0.0 | 0.0 | 0.00 | 0.00 | 0.00 | 99 | 1016.3 |
| 20260502062112 | 13 | 343 | 0.0 | 0.0 | 0.00 | 0.00 | 0.00 | 99 | 1016.3 |
| 20260502061610 | 13 | 344 | 0.0 | 0.0 | 0.00 | 0.00 | 0.00 | 99 | 1016.2 |
| 20260502061108 | 13 | 321 | 0.0 | 0.0 | 0.00 | 0.00 | 0.00 | 99 | 1016.1 |
| 20260502060607 | 13 | 340 | 0.0 | 0.0 | 0.00 | 0.00 | 0.00 | 99 | 1016.1 |
| 20260502060105 | 13 | 330 | 0.0 | 0.0 | 0.00 | 0.00 | 0.00 | 99 | 1016.2 |
| 20260502055602 | 13 | 340 | 0.0 | 0.0 | 0.00 | 0.00 | 0.00 | 99 | 1016.2 |
| 20260502055100 | 13 | 332 | 0.0 | 0.0 | 0.00 | 0.00 | 0.00 | 99 | 1016.1 |
| 20260502054559 | 13 | 323 | 0.0 | 0.0 | 0.00 | 0.00 | 0.00 | 99 | 1016.0 |
| 20260502054055 | 13 | 322 | 0.0 | 0.0 | 0.00 | 0.00 | 0.00 | 99 | 1016.2 |
| 20260502053553 | 13 | 344 | 0.0 | 0.0 | 0.00 | 0.00 | 0.00 | 99 | 1016.0 |
| 20260502053050 | 13 | 345 | 0.0 | 0.0 | 0.00 | 0.00 | 0.00 | 99 | 1016.2 |
| 20260502052549 | 13 | 345 | 0.0 | 0.0 | 0.00 | 0.00 | 0.00 | 99 | 1015.9 |
| 20260502052046 | 13 | 342 | 0.0 | 0.0 | 0.00 | 0.00 | 0.00 | 99 | 1016.2 |
| 20260502051544 | 13 | 327 | 0.0 | 0.0 | 0.00 | 0.00 | 0.00 | 99 | 1016.1 |
| 20260502051042 | 13 | 326 | 0.0 | 0.0 | 0.00 | 0.00 | 0.00 | 99 | 1016.2 |
| 20260502050537 | 13 | 345 | 0.0 | 0.0 | 0.00 | 0.00 | 0.00 | 99 | 1016.2 |
| 20260502050035 | 13 | 323 | 0.0 | 0.0 | 0.00 | 0.00 | 0.00 | 99 | 1016.3 |
| 20260502045531 | 13 | 324 | 0.0 | 0.0 | 0.00 | 3.00 | 3.00 | 99 | 1015.9 |
| 20260502045029 | 13 | 349 | 0.0 | 0.0 | 0.13 | 3.00 | 3.00 | 99 | 1015.8 |
| 20260502044525 | 13 | 348 | 0.0 | 0.0 | 0.13 | 3.00 | 3.00 | 99 | 1015.9 |
| 20260502044021 | 13 | 323 | 0.0 | 0.0 | 0.00 | 2.97 | 2.97 | 99 | 1015.8 |
| 20260502043519 | 13 | 351 | 0.0 | 0.0 | 0.00 | 2.97 | 2.97 | 99 | 1015.9 |
| 20260502043015 | 13 | 1 | 0.0 | 0.0 | 0.00 | 2.97 | 2.97 | 99 | 1015.8 |
| 20260502042510 | 13 | 3 | 0.0 | 0.0 | 0.00 | 2.97 | 2.97 | 99 | 1016.3 |
| 20260502042008 | 13 | 319 | 0.0 | 0.0 | 0.00 | 2.97 | 2.97 | 99 | 1016.3 |
| 20260502041506 | 13 | 334 | 0.0 | 0.0 | 0.00 | 2.97 | 2.97 | 99 | 1016.1 |
| 20260502041003 | 13 | 338 | 0.0 | 0.0 | 0.00 | 2.97 | 2.97 | 99 | 1016.1 |
| 20260502040459 | 13 | 340 | 0.0 | 0.0 | 0.00 | 2.97 | 2.97 | 99 | 1016.3 |
| 20260502035956 | 13 | 322 | 0.0 | 0.0 | 0.00 | 2.97 | 2.97 | 99 | 1016.5 |
| 20260502035451 | 13 | 321 | 0.0 | 0.0 | 0.00 | 2.97 | 2.97 | 99 | 1016.4 |
| 20260502034950 | 13 | 320 | 0.0 | 0.0 | 0.00 | 2.97 | 2.97 | 99 | 1016.2 |
| 20260502034448 | 13 | 304 | 0.0 | 0.0 | 0.00 | 2.97 | 2.97 | 99 | 1016.1 |
| 20260502033946 | 13 | 350 | 0.0 | 0.0 | 0.00 | 2.97 | 2.97 | 99 | 1015.8 |
| 20260502033443 | 13 | 349 | 0.0 | 0.0 | 0.00 | 2.97 | 2.97 | 99 | 1016.0 |
| 20260502032940 | 13 | 352 | 0.0 | 0.0 | 0.00 | 2.97 | 2.97 | 99 | 1015.9 |
| 20260502032436 | 13 | 353 | 0.0 | 0.0 | 0.00 | 2.97 | 2.97 | 99 | 1016.0 |
| 20260502031933 | 13 | 335 | 0.0 | 0.0 | 0.00 | 2.97 | 2.97 | 99 | 1015.8 |
| 20260502031432 | 13 | 5 | 0.0 | 0.0 | 0.00 | 2.97 | 2.97 | 99 | 1015.7 |
| 20260502030930 | 13 | 332 | 0.0 | 0.0 | 0.00 | 2.97 | 2.97 | 99 | 1016.2 |
| 20260502030428 | 13 | 327 | 0.0 | 0.0 | 0.00 | 2.97 | 2.97 | 99 | 1016.4 |
| 20260502025925 | 13 | 322 | 0.0 | 0.0 | 0.00 | 2.97 | 2.97 | 99 | 1016.4 |
| 20260502025422 | 13 | 323 | 0.0 | 0.0 | 0.00 | 2.97 | 2.97 | 99 | 1016.4 |
| 20260502024920 | 13 | 317 | 0.0 | 0.0 | 0.18 | 2.97 | 2.97 | 99 | 1016.2 |
| 20260502024418 | 13 | 299 | 0.0 | 0.0 | 0.18 | 2.97 | 2.97 | 99 | 1016.2 |
| 20260502023916 | 13 | 319 | 0.0 | 0.0 | 0.13 | 2.95 | 2.95 | 99 | 1016.1 |
| 20260502023413 | 13 | 297 | 0.0 | 0.0 | 0.30 | 2.95 | 2.95 | 99 | 1015.5 |
| 20260502022910 | 13 | 314 | 0.0 | 0.0 | 0.18 | 2.92 | 2.92 | 99 | 1015.7 |
| 20260502022407 | 13 | 315 | 0.0 | 0.0 | 0.00 | 2.90 | 2.90 | 99 | 1015.6 |
| 20260502021903 | 13 | 331 | 0.0 | 0.0 | 0.18 | 2.90 | 2.90 | 99 | 1015.4 |
| 20260502021401 | 13 | 334 | 0.0 | 0.0 | 0.18 | 2.90 | 2.90 | 99 | 1015.1 |
| 20260502020858 | 13 | 337 | 0.0 | 0.0 | 0.00 | 2.87 | 2.87 | 99 | 1015.0 |
| 20260502020356 | 13 | 287 | 1.6 | 1.6 | 0.00 | 2.87 | 2.87 | 99 | 1015.4 |
| 20260502015852 | 13 | 326 | 0.0 | 0.0 | 0.00 | 2.87 | 2.87 | 99 | 1015.0 |
| 20260502015349 | 13 | 346 | 0.0 | 0.0 | 0.00 | 2.87 | 2.87 | 99 | 1014.7 |
| 20260502014847 | 13 | 351 | 0.0 | 0.0 | 0.00 | 2.87 | 2.87 | 99 | 1014.5 |
| 20260502014344 | 13 | 323 | 0.0 | 0.0 | 0.00 | 2.87 | 2.87 | 99 | 1014.7 |
| 20260502013839 | 13 | 292 | 0.0 | 0.0 | 0.00 | 2.87 | 2.87 | 99 | 1014.5 |
| 20260502013335 | 13 | 339 | 0.0 | 1.6 | 0.00 | 2.87 | 2.87 | 99 | 1014.3 |
| 20260502012832 | 13 | 341 | 0.0 | 0.0 | 0.00 | 2.87 | 2.87 | 99 | 1014.0 |
| 20260502012330 | 13 | 350 | 0.0 | 0.0 | 0.00 | 2.87 | 2.87 | 99 | 1014.0 |
| 20260502011827 | 13 | 337 | 0.0 | 0.0 | 0.00 | 2.87 | 2.87 | 99 | 1014.4 |
| 20260502011323 | 13 | 2 | 0.0 | 0.0 | 0.00 | 2.87 | 2.87 | 99 | 1014.1 |
| 20260502010821 | 13 | 338 | 0.0 | 0.0 | 0.00 | 2.87 | 2.87 | 99 | 1014.0 |
| 20260502010317 | 13 | 343 | 0.0 | 1.6 | 0.13 | 2.87 | 2.87 | 99 | 1013.9 |
| 20260502005814 | 13 | 25 | 0.0 | 1.6 | 0.13 | 2.87 | 2.87 | 99 | 1014.1 |
| 20260502005312 | 13 | 349 | 0.0 | 0.0 | 0.00 | 2.84 | 2.84 | 99 | 1014.0 |
| 20260502004809 | 13 | 35 | 1.6 | 1.6 | 0.00 | 2.84 | 2.84 | 99 | 1014.0 |
| 20260502004305 | 13 | 343 | 0.0 | 1.6 | 0.00 | 2.84 | 2.84 | 99 | 1014.0 |
| 20260502003803 | 13 | 348 | 0.0 | 0.0 | 0.00 | 2.84 | 2.84 | 99 | 1014.1 |
| 20260502003259 | 13 | 8 | 0.0 | 0.0 | 0.00 | 2.84 | 2.84 | 99 | 1014.2 |
| 20260502002755 | 13 | 350 | 0.0 | 0.0 | 0.00 | 2.84 | 2.84 | 99 | 1014.2 |
| 20260502002252 | 13 | 348 | 0.0 | 0.0 | 0.00 | 2.84 | 2.84 | 99 | 1014.6 |
| 20260502001750 | 13 | 355 | 0.0 | 0.0 | 0.00 | 2.84 | 2.84 | 99 | 1014.3 |
| 20260502001248 | 13 | 356 | 0.0 | 0.0 | 0.00 | 2.84 | 2.84 | 99 | 1015.0 |
| 20260502000745 | 13 | 338 | 0.0 | 0.0 | 0.00 | 2.84 | 2.84 | 99 | 1014.9 |
| 20260502000244 | 13 | 324 | 0.0 | 0.0 | 0.00 | 2.84 | 2.84 | 99 | 1015.0 |
| 20260501235738 | 13 | 338 | 0.0 | 0.0 | 0.00 | 2.84 | 2.84 | 99 | 1014.9 |
| 20260501235234 | 13 | 349 | 0.0 | 0.0 | 0.00 | 2.84 | 2.84 | 99 | 1014.6 |
| 20260501234730 | 13 | 353 | 0.0 | 0.0 | 0.00 | 2.84 | 2.84 | 99 | 1014.8 |
| 20260501234228 | 13 | 0 | 0.0 | 1.6 | 0.00 | 2.84 | 2.84 | 99 | 1014.4 |
| 20260501233726 | 13 | 2 | 0.0 | 1.6 | 0.18 | 2.84 | 2.84 | 99 | 1014.4 |
| 20260501233223 | 13 | 7 | 0.0 | 1.6 | 0.18 | 2.84 | 2.84 | 99 | 1014.8 |
| 20260501232718 | 13 | 351 | 0.0 | 0.0 | 0.00 | 2.82 | 2.82 | 99 | 1014.7 |
| 20260501232216 | 13 | 349 | 0.0 | 0.0 | 0.00 | 2.82 | 2.82 | 99 | 1014.7 |
| 20260501231714 | 13 | 349 | 0.0 | 0.0 | 0.13 | 2.82 | 2.82 | 99 | 1014.7 |
| 20260501231212 | 13 | 345 | 0.0 | 0.0 | 0.13 | 2.82 | 2.82 | 99 | 1014.7 |
| 20260501230710 | 13 | 345 | 0.0 | 0.0 | 0.00 | 2.79 | 2.79 | 99 | 1014.6 |
| 20260501230208 | 13 | 345 | 0.0 | 0.0 | 0.00 | 2.79 | 2.79 | 99 | 1014.9 |
| 20260501225705 | 13 | 345 | 0.0 | 0.0 | 0.00 | 2.79 | 2.79 | 99 | 1014.8 |
| 20260501225202 | 13 | 351 | 0.0 | 0.0 | 0.00 | 2.79 | 2.79 | 99 | 1014.7 |
| 20260501224658 | 13 | 343 | 0.0 | 0.0 | 0.00 | 2.79 | 2.79 | 99 | 1014.6 |
| 20260501224155 | 13 | 353 | 0.0 | 0.0 | 0.00 | 2.79 | 2.79 | 99 | 1014.4 |
| 20260501223652 | 13 | 340 | 0.0 | 0.0 | 0.00 | 2.79 | 2.79 | 99 | 1014.4 |
| 20260501223148 | 13 | 349 | 0.0 | 0.0 | 0.00 | 2.79 | 2.79 | 99 | 1014.3 |
| 20260501222645 | 13 | 352 | 0.0 | 0.0 | 0.00 | 2.79 | 2.79 | 99 | 1014.2 |
| 20260501222142 | 13 | 349 | 0.0 | 0.0 | 0.00 | 2.79 | 2.79 | 99 | 1013.9 |
| 20260501221638 | 13 | 6 | 0.0 | 0.0 | 0.18 | 2.79 | 2.79 | 99 | 1013.8 |
| 20260501221137 | 13 | 4 | 0.0 | 1.6 | 0.18 | 2.79 | 2.79 | 99 | 1013.8 |
| 20260501220633 | 13 | 343 | 0.0 | 0.0 | 0.00 | 2.77 | 2.77 | 99 | 1013.6 |
| 20260501220130 | 13 | 359 | 0.0 | 0.0 | 0.13 | 2.77 | 2.77 | 99 | 1013.6 |
| 20260501215627 | 13 | 12 | 1.6 | 1.6 | 0.13 | 2.77 | 2.77 | 99 | 1013.6 |
| 20260501215122 | 13 | 12 | 3.2 | 3.2 | 0.00 | 2.74 | 2.74 | 99 | 1013.5 |
| 20260501214617 | 13 | 342 | 0.0 | 1.6 | 0.00 | 2.74 | 2.74 | 99 | 1013.4 |
| 20260501214113 | 13 | 356 | 1.6 | 1.6 | 0.00 | 2.74 | 2.74 | 99 | 1012.9 |
| 20260501213610 | 13 | 4 | 1.6 | 1.6 | 0.00 | 2.74 | 2.74 | 99 | 1012.7 |
| 20260501213106 | 13 | 5 | 1.6 | 3.2 | 0.00 | 2.74 | 2.74 | 99 | 1012.6 |
| 20260501212603 | 13 | 31 | 1.6 | 3.2 | 0.00 | 2.74 | 2.74 | 99 | 1012.5 |
| 20260501212100 | 13 | 339 | 1.6 | 1.6 | 0.00 | 2.74 | 2.74 | 99 | 1012.3 |
| 20260501211556 | 13 | 14 | 3.2 | 4.8 | 0.00 | 2.74 | 2.74 | 99 | 1012.2 |
| 20260501211055 | 13 | 23 | 3.2 | 4.8 | 0.00 | 2.74 | 2.74 | 99 | 1012.4 |
| 20260501210550 | 13 | 339 | 1.6 | 1.6 | 0.00 | 2.74 | 2.74 | 99 | 1012.4 |
| 20260501210048 | 13 | 7 | 0.0 | 1.6 | 0.00 | 2.74 | 2.74 | 99 | 1012.5 |
| 20260501205544 | 13 | 2 | 6.4 | 9.7 | 0.00 | 2.74 | 2.74 | 99 | 1011.6 |
| 20260501205042 | 13 | 16 | 3.2 | 3.2 | 0.00 | 2.74 | 2.74 | 99 | 1011.8 |
| 20260501204538 | 13 | 63 | 3.2 | 4.8 | 0.00 | 2.74 | 2.74 | 99 | 1011.4 |
| 20260501204034 | 12 | 13 | 3.2 | 4.8 | 0.00 | 2.74 | 2.74 | 99 | 1011.3 |
| 20260501203530 | 13 | 118 | 1.6 | 3.2 | 0.00 | 2.74 | 2.74 | 99 | 1011.0 |
| 20260501203028 | 13 | 19 | 3.2 | 3.2 | 0.00 | 2.74 | 2.74 | 99 | 1010.8 |
| 20260501202525 | 13 | 14 | 6.4 | 9.7 | 0.00 | 2.74 | 2.74 | 99 | 1011.3 |
| 20260501202021 | 13 | 103 | 4.8 | 4.8 | 0.00 | 2.74 | 2.74 | 99 | 1011.8 |
| 20260501201519 | 13 | 9 | 6.4 | 9.7 | 0.00 | 2.74 | 2.74 | 99 | 1011.9 |
| 20260501201015 | 13 | 39 | 6.4 | 11.3 | 0.00 | 2.74 | 2.74 | 99 | 1012.1 |
| 20260501200512 | 13 | 348 | 4.8 | 4.8 | 0.00 | 2.74 | 2.74 | 99 | 1012.4 |
| 20260501200010 | 13 | 0 | 6.4 | 9.7 | 0.18 | 2.74 | 2.74 | 99 | 1012.6 |
| 20260501195507 | 13 | 72 | 1.6 | 3.2 | 0.13 | 2.72 | 2.72 | 99 | 1013.6 |
| 20260501195002 | 13 | 14 | 4.8 | 4.8 | 0.13 | 2.72 | 2.72 | 99 | 1013.7 |